Find Starlink 30357

NORAD ID: 57750 Int'l Des: 2023-131 Owner: SPXS Country: US Constellation: starlink operational
LEOCIRCULAR

Live-Position

3D-Globus wird geladen...

Über Starlink 30357

Beschreibung wird geladen...

Nächste Überflüge

Passes for default location (London). Set your location on the main map for personalized predictions.

Höhenverlauf

Loading altitude history...

Zweizeiliger Elementsatz

1 57750U 23131U 26133.18890330 .00003310 00000-0 13294-3 0 9990
2 57750 42.9985 175.6077 0000810 271.3597 88.7162 15.26756198149689
Epoch: 13. Mai 2026 • Age: 13 hours

Aktueller Status

Höhe 485.1 km
Geschwindigkeit 7.62 km/s
Subsatellitenpunkt 1.05°N, 45.78°E
Startdatum 1. Sept. 2023
Alter 2.6 years
Typ internet

Technische Details

Klassifizierung Payload
Masse 730.00 kg
Trockenmasse 700.00 kg
Gesamtmasse 730.00 kg
Länge 0.30 m
Durchmesser 4.10 m
Spannweite 29.00 m
Form Box + pan
Hersteller SPXS
Bus-Typ Starlink V2M
Phasenstatus In Orbit
Besitzer/Staat SPXS/US

Most Searched